(170946) = 2005 BP2

Discovered at Socorro on 2005-01-16 by LINEAR.

Orbit

Orbit type: Main Belt

Note: WebGL enabled browser required.

epoch2023-09-13.0
epoch JD2460200.5
perihelion date2020-09-26.91368
perihelion JD2459119.41368
argument of perihelion (°)330.74994
ascending node (°)81.34519
inclination (°)29.21370
eccentricity0.0799064
perihelion distance (AU)2.3776225
Tisserand w.r.t. Jupiter3.2
ΔV w.r.t. Earth (km/sec)13.5
semimajor axis (AU)2.5841093
mean anomaly (°)256.50622
mean daily motion (°/day)0.23726710
aphelion distance (AU)2.791
period (years)4.15
P-vector [x]0.55290981
P-vector [y]0.82736561
P-vector [z]0.09877699
Q-vector [x]-0.67931889
Q-vector [y]0.37894684
Q-vector [z]0.62843069
absolute magnitude15.42
phase slope0.15
uncertainty0
referenceMPEC 2024-A34
observations used615
oppositions17
arc length (days)8675
first opposition used1999
last opposition used2023
residual rms (arc-secs)0.75
perturbers coarse indicatorM-v
perturbers precise indicator003Ek
first observation date used1999-10-16.0
last observation date used2023-07-16.0
computer nameMPCLINUX
JD of orbit computation2456937.553557
perihelion JD uncertainty (days)1.9502E-04
argument of perihelion uncertainty (°)4.1350E-05
ascending node uncertainty (°)1.0919E-05
inclination uncertainty (°)6.6133E-06
eccentricity uncertainty 7.5102E-08
perihelion distance uncertainty (AU)1.8411E-07
Minimum Orbit Intersection Distances (in AU)
for orbit epoch: 2460200.5, reference: E2024-A34
Mercury2.07618
Venus1.669
Earth1.40716
Mars0.84791
Jupiter2.52144
Saturn6.65046
Uranus16.1188
Neptune27.5492

Observations

630 total observations over interval: 1999 10 16.35005 – 2023 07 16.963584
These data are available for download (format description).

Date (UT) J2000 RA J2000 Dec Magn Location Ref
1999 10 16.35005 03 54 55.39 -12 24 42.9 18.9   704 – Lincoln Laboratory ETS, New Mexico MPS 131724
1999 10 16.36584 03 54 54.65 -12 24 42.6 19.4   704 – Lincoln Laboratory ETS, New Mexico MPS 131724
1999 10 16.38162 03 54 53.83 -12 24 44.7 19.5   704 – Lincoln Laboratory ETS, New Mexico MPS 131724
1999 10 16.39743 03 54 53.13 -12 24 45.2 19.4   704 – Lincoln Laboratory ETS, New Mexico MPS 131724
2003 09 22.40553 02 55 07.82 -26 50 13.7 18.4   644 – Palomar Mountain/NEAT MPS 131724
2003 09 22.41642 02 55 07.50 -26 50 18.6 18.3   644 – Palomar Mountain/NEAT MPS 131724
2003 09 22.43046 02 55 07.05 -26 50 24.0 18.6   644 – Palomar Mountain/NEAT MPS 131724
2003 09 27.40344 02 52 22.93 -27 22 19.6 19.0 R 699 – Lowell Observatory-LONEOS MPS 131724
2003 09 27.41687 02 52 22.35 -27 22 24.4   699 – Lowell Observatory-LONEOS MPS 131724
2003 09 27.43021 02 52 21.91 -27 22 28.2   699 – Lowell Observatory-LONEOS MPS 131724
2003 09 27.44361 02 52 21.38 -27 22 32.7   699 – Lowell Observatory-LONEOS MPS 131724
2005 01 16.41503 11 32 06.26 +43 33 08.7 19.6   704 – Lincoln Laboratory ETS, New Mexico MPS 124864
2005 01 16.42817 11 32 06.19 +43 33 21.2 19.4   704 – Lincoln Laboratory ETS, New Mexico MPS 124864
2005 01 16.44123 11 32 06.18 +43 33 33.8 20.0   704 – Lincoln Laboratory ETS, New Mexico MPS 124864
2005 01 16.45438 11 32 06.24 +43 33 46.2 19.6   704 – Lincoln Laboratory ETS, New Mexico MPS 124864
2005 01 16.47113 11 32 06.27 +43 34 01.5 20.2   704 – Lincoln Laboratory ETS, New Mexico MPS 124864
2005 01 19.48093 11 32 07.12 +44 20 40.6 19.5   704 – Lincoln Laboratory ETS, New Mexico MPS 124864
2005 01 19.49683 11 32 07.06 +44 20 55.8 19.4   704 – Lincoln Laboratory ETS, New Mexico MPS 124864
2005 01 19.51155 11 32 07.01 +44 21 09.7 20.2   704 – Lincoln Laboratory ETS, New Mexico MPS 124864
2005 01 19.52751 11 32 06.95 +44 21 23.3 19.7   704 – Lincoln Laboratory ETS, New Mexico MPS 124864
2005 03 04.29760 10 57 43.11 +52 27 45.1 20.0   704 – Lincoln Laboratory ETS, New Mexico MPS 128017
2005 03 04.31204 10 57 42.01 +52 27 49.0 20.1   704 – Lincoln Laboratory ETS, New Mexico MPS 128017
2005 03 04.32709 10 57 40.91 +52 27 53.0 20.4   704 – Lincoln Laboratory ETS, New Mexico MPS 128017
2005 03 04.34295 10 57 39.71 +52 27 55.1 20.3   704 – Lincoln Laboratory ETS, New Mexico MPS 128017
2005 03 09.30778 10 51 45.36 +52 38 30.9 20.6   704 – Lincoln Laboratory ETS, New Mexico MPS 128017
2005 03 09.31996 10 51 44.46 +52 38 31.3 19.9   704 – Lincoln Laboratory ETS, New Mexico MPS 128017
2005 03 09.33208 10 51 43.46 +52 38 31.0 20.1   704 – Lincoln Laboratory ETS, New Mexico MPS 128017
2006 05 18.44896 16 56 48.52 -11 14 05.4 18.9 R 644 – Palomar Mountain/NEAT MPS 171609
2006 05 18.46159 16 56 47.72 -11 14 09.8 19.3 R 644 – Palomar Mountain/NEAT MPS 171609
2006 05 18.47755 16 56 46.68 -11 14 15.2 19.0 R 644 – Palomar Mountain/NEAT MPS 171609
2006 05 25.36952 16 49 21.25 -11 55 33.2 19.1 R 644 – Palomar Mountain/NEAT MPS 172038
2006 05 25.39690 16 49 19.36 -11 55 43.7 19.0 R 644 – Palomar Mountain/NEAT MPS 172038
2006 05 25.44321 16 49 16.18 -11 56 01.4 19.4 R 644 – Palomar Mountain/NEAT MPS 172038
2006 06 04.37252 16 37 47.67 -13 02 41.6 18.6 V G96 – Mt. Lemmon Survey MPS 173592
2006 06 04.37911 16 37 47.17 -13 02 44.3 18.7 V G96 – Mt. Lemmon Survey MPS 173592
2006 06 04.38687 16 37 46.63 -13 02 47.6 18.3 V G96 – Mt. Lemmon Survey MPS 173592
2006 06 04.39345 16 37 46.16 -13 02 50.4 18.6 V G96 – Mt. Lemmon Survey MPS 173592
2006 06 16.34535 16 24 10.15 -14 31 23.0 19.2 R 644 – Palomar Mountain/NEAT MPS 173918
2006 06 16.36578 16 24 08.80 -14 31 32.3 19.3 R 644 – Palomar Mountain/NEAT MPS 173918
2006 06 16.38618 16 24 07.46 -14 31 41.6 19.3 R 644 – Palomar Mountain/NEAT MPS 173918
2006 07 22.19606 15 59 23.67 -19 16 52.0 19.7 V G96 – Mt. Lemmon Survey MPS 175131
2006 07 22.20060 15 59 23.60 -19 16 54.0 19.5 V G96 – Mt. Lemmon Survey MPS 175131
2006 07 22.20514 15 59 23.49 -19 16 56.6 19.8 V G96 – Mt. Lemmon Survey MPS 175131
2006 07 22.20966 15 59 23.46 -19 16 57.9 18.2 V G96 – Mt. Lemmon Survey MPS 175131
2007 09 09.68625 01 38 29.22 -39 59 20.0 19.5 V E12 – Siding Spring Survey MPS 215135
2007 09 09.69332 01 38 28.93 -39 59 24.2 19.6 V E12 – Siding Spring Survey MPS 215135
2007 09 09.70031 01 38 28.64 -39 59 28.1 19.3 V E12 – Siding Spring Survey MPS 215135
2007 09 09.70731 01 38 28.39 -39 59 31.9 19.4 V E12 – Siding Spring Survey MPS 215135
2007 09 19.63156 01 30 45.14 -41 18 40.7 19.3 V E12 – Siding Spring Survey MPS 216219
2007 09 19.64047 01 30 44.67 -41 18 43.8 19.2 V E12 – Siding Spring Survey MPS 216219
2007 09 19.64942 01 30 44.10 -41 18 47.3 19.3 V E12 – Siding Spring Survey MPS 216219
2007 09 19.65839 01 30 43.63 -41 18 50.2 19.4 V E12 – Siding Spring Survey MPS 216219
2007 11 10.54760 00 39 05.18 -37 25 22.4 20.3 V E12 – Siding Spring Survey MPS 226861
2007 11 10.55850 00 39 04.93 -37 25 13.9 20.2 V E12 – Siding Spring Survey MPS 226861
2007 11 10.56935 00 39 04.57 -37 25 03.0 19.5 V E12 – Siding Spring Survey MPS 226861
2007 11 10.58023 00 39 04.21 -37 24 53.2 19.6 V E12 – Siding Spring Survey MPS 226861
2008 12 22.37088 09 50 30.25 +41 42 03.6 18.9   704 – Lincoln Laboratory ETS, New Mexico MPS 269934
2008 12 22.39464 09 50 30.38 +41 42 27.9 19.4   704 – Lincoln Laboratory ETS, New Mexico MPS 269934
2008 12 22.40650 09 50 30.40 +41 42 40.6 19.5   704 – Lincoln Laboratory ETS, New Mexico MPS 269934
2009 02 03.28439 09 20 54.96 +52 41 34.9 19.8   704 – Lincoln Laboratory ETS, New Mexico MPS 276084
2009 02 03.29619 09 20 54.18 +52 41 40.4 19.6   704 – Lincoln Laboratory ETS, New Mexico MPS 276084
2009 02 03.30804 09 20 53.11 +52 41 48.3 19.9   704 – Lincoln Laboratory ETS, New Mexico MPS 276084
2009 02 03.32008 09 20 52.13 +52 41 54.8 19.7   704 – Lincoln Laboratory ETS, New Mexico MPS 276084
2009 02 14.29624 09 06 41.41 +53 58 18.9 19.4   704 – Lincoln Laboratory ETS, New Mexico MPS 277446
2009 02 14.31928 09 06 39.78 +53 58 23.6 19.6   704 – Lincoln Laboratory ETS, New Mexico MPS 277446
2009 02 14.33077 09 06 38.90 +53 58 28.1 19.0   704 – Lincoln Laboratory ETS, New Mexico MPS 277446
2009 03 02.13500 08 50 05.64 +54 17 45.8 19.2 V 703 – Catalina Sky Survey MPS 279504
2009 03 02.14311 08 50 05.20 +54 17 43.6 19.9 V 703 – Catalina Sky Survey MPS 279504
2009 03 02.15130 08 50 04.84 +54 17 42.9 19.4 V 703 – Catalina Sky Survey MPS 279504
2009 03 02.15941 08 50 04.27 +54 17 42.9 19.4 V 703 – Catalina Sky Survey MPS 279504
2010 02 21.541413 16 20 20.52 +00 11 42.3   C51 – WISE MPS 371156
2010 02 21.673716 16 20 26.41 +00 11 41.2   C51 – WISE MPS 316293
2010 02 21.806021 16 20 32.26 +00 11 39.4   C51 – WISE MPS 316293
2010 02 21.806148 16 20 32.25 +00 11 40.1   C51 – WISE MPS 316293
2010 02 21.938453 16 20 38.10 +00 11 39.3   C51 – WISE MPS 371156
2010 02 22.00454 16 20 40.99 +00 11 39.0   C51 – WISE MPS 371156
2010 02 22.070757 16 20 43.90 +00 11 38.7   C51 – WISE MPS 316293
2010 02 22.136845 16 20 46.81 +00 11 38.0   C51 – WISE MPS 316293
2010 02 22.269277 16 20 52.60 +00 11 37.3   C51 – WISE MPS 316293
2010 02 22.335365 16 20 55.49 +00 11 37.2   C51 – WISE MPS 316293
2010 02 22.401581 16 20 58.38 +00 11 37.1   C51 – WISE MPS 316293
2010 02 22.533884 16 21 04.11 +00 11 36.4   C51 – WISE MPS 371156
2010 02 22.666189 16 21 09.86 +00 11 35.7   C51 – WISE MPS 316293
2010 02 22.798493 16 21 15.60 +00 11 35.4   C51 – WISE MPS 371156
2010 04 25.40603 16 21 49.14 +00 44 27.0 19.7 V G96 – Mt. Lemmon Survey MPS 324666
2010 04 25.41220 16 21 48.85 +00 44 26.9 19.8 V G96 – Mt. Lemmon Survey MPS 324666
2010 04 25.41837 16 21 48.56 +00 44 26.4 19.5 V G96 – Mt. Lemmon Survey MPS 324666
2010 04 25.42466 16 21 48.24 +00 44 25.8 19.4 V G96 – Mt. Lemmon Survey MPS 324666
2010 06 30.10556 15 20 09.00 -05 47 16.0 19.2 Y W91 – VHS-VISTA, Cerro Paranal MPS 677809
2010 06 30.10702 15 20 08.98 -05 47 17.2 19.2 Y W91 – VHS-VISTA, Cerro Paranal MPS 677809
2010 06 30.11329 15 20 08.78 -05 47 20.5 18.9 J W91 – VHS-VISTA, Cerro Paranal MPS 677809
2010 06 30.12166 15 20 08.52 -05 47 25.8 18.6 H W91 – VHS-VISTA, Cerro Paranal MPS 677809
2010 06 30.12326 15 20 08.47 -05 47 26.8 18.4 H W91 – VHS-VISTA, Cerro Paranal MPS 677809
2010 08 07.94768 15 20 13.15 -12 34 11.3   C51 – WISE MPS 344673
